Starlink 31815

operational
NORAD ID: 59801 Int'l Des: 2024-093 Owner: SPXS Country: US Constellation: starlink
LEOCIRCULAR

Über Starlink 31815

Beschreibung wird geladen...

Live-Position

3D-Globus wird geladen...

Nächste Überflüge

Höhenverlauf

Altitude vs Time

uPlot chart will show altitude changes over time

Zweizeiliger Elementsatz

1 59801U 24093V 25354.17879578 -.00001960 00000-0 -61749-4 0 9991
2 59801 43.0047 298.0698 0001320 273.8176 86.2525 15.27565019 90531
Epoch: 20. Dez. 2025 • Age: 7 hours

Aktueller Status

Höhe 484.9 km
Geschwindigkeit 7.63 km/s
Subsatellitenpunkt 33.15°N, 89.42°E
Startdatum 18. Mai 2024
Alter 1.5 years
Typ internet

Technische Details

Klassifizierung Payload
Masse 730.00 kg
Trockenmasse 700.00 kg
Gesamtmasse 730.00 kg
Länge 0.30 m
Durchmesser 4.10 m
Spannweite 29.00 m
Form Box + pan
Hersteller SPXS
Bus-Typ Starlink V2M
Phasenstatus In Orbit
Besitzer/Staat SPXS/US

Große Konstellationen

Loading constellations...